AV279 Weather Reports


time (UTC)temp
C
wind
direction
speed
KPH
gust
KPH
rain 1hr
cm
rain 24hr
cm
rain mn
cm
humidity
%
barometer
mb
20260906183951 21 203 1.6 3.2 0.00 0.00 0.00 57 1019.4
20260906182931 22 0.0 0.0 0.00 0.00 0.00 57 1019.5
20260906181951 22 225 3.2 4.8 0.00 0.00 0.00 55 1019.4
20260906180920 22 248 3.2 4.8 0.00 0.00 0.00 54 1019.3
20260906175920 22 225 3.2 6.4 0.00 0.00 0.00 52 1019.3
20260906174920 23 248 6.4 11.3 0.00 0.00 0.00 54 1019.5
20260906173920 23 225 4.8 6.4 0.00 0.00 0.00 53 1019.3
20260906173136 23 158 1.6 3.2 0.00 0.00 0.00 55 1019.4
20260906172630 23 225 1.6 4.8 0.00 0.00 0.00 55 1019.5
20260906171620 23 180 1.6 3.2 0.00 0.00 0.00 56 1019.6
20260906170620 23 180 1.6 4.8 0.00 0.00 0.00 52 1019.5
20260906165630 23 0.0 3.2 0.00 0.00 0.00 53 1019.4
20260906164619 23 0.0 0.0 0.00 0.00 0.00 49 1019.4
20260906163619 24 90 3.2 3.2 0.00 0.00 0.00 49 1019.4
20260906162630 24 135 1.6 3.2 0.00 0.00 0.00 48 1019.3
20260906161630 24 90 3.2 4.8 0.00 0.00 0.00 49 1019.7
20260906160640 24 0.0 0.0 0.00 0.00 0.00 48 1019.9
20260906155620 24 270 1.6 6.4 0.00 0.00 0.00 47 1020.1
20260906154619 24 203 4.8 8.0 0.00 0.00 0.00 46 1020.4
20260906153620 24 203 6.4 9.7 0.00 0.00 0.00 46 1020.5
20260906152630 25 203 4.8 8.0 0.00 0.00 0.00 45 1020.6
20260906151630 25 248 6.4 11.3 0.00 0.00 0.00 45 1020.7
20260906150631 24 180 3.2 4.8 0.00 0.00 0.00 48 1020.7
20260906145630 24 203 6.4 12.9 0.00 0.00 0.00 45 1020.7
20260906144630 25 180 8.0 14.5 0.00 0.00 0.00 44 1020.7
20260906143630 25 225 3.2 8.0 0.00 0.00 0.00 47 1020.8
20260906142640 25 225 4.8 9.7 0.00 0.00 0.00 46 1020.8
20260906141630 25 225 6.4 9.7 0.00 0.00 0.00 43 1020.9
20260906140639 25 158 4.8 9.7 0.00 0.00 0.00 46 1020.9
20260906135702 25 203 4.8 9.7 0.00 0.00 0.00 45 1021.0
20260906134650 25 180 6.4 11.3 0.00 0.00 0.00 43 1021.2
20260906133619 25 270 3.2 6.4 0.00 0.00 0.00 45 1021.2
20260906132641 25 225 12.9 17.7 0.00 0.00 0.00 44 1021.3
20260906131619 25 158 4.8 9.7 0.00 0.00 0.00 46 1021.4
20260906130619 25 68 1.6 4.8 0.00 0.00 0.00 48 1021.5
20260906125619 25 180 4.8 9.7 0.00 0.00 0.00 48 1021.5
20260906124630 25 203 9.7 16.1 0.00 0.00 0.00 47 1021.8
20260906123835 25 225 9.7 14.5 0.00 0.00 0.00 48 1021.8
20260906123219 25 248 12.9 19.3 0.00 0.00 0.00 48 1021.9
20260906122230 25 180 9.7 17.7 0.00 0.00 0.00 50 1021.9
20260906121241 25 203 6.4 16.1 0.00 0.00 0.00 50 1021.9
20260906120219 25 180 9.7 14.5 0.00 0.00 0.00 50 1021.9
20260906115433 24 180 9.7 16.1 0.00 0.00 0.00 51 1021.9
20260906114819 24 248 12.9 24.1 0.00 0.00 0.00 52 1021.9
20260906113819 23 225 4.8 9.7 0.00 0.00 0.00 53 1022.0
20260906112819 24 203 9.7 16.1 0.00 0.00 0.00 54 1022.2
20260906111819 23 180 6.4 9.7 0.00 0.00 0.00 54 1022.3
20260906110900 23 158 3.2 6.4 0.00 0.00 0.00 55 1022.4
20260906105819 23 180 8.0 9.7 0.00 0.00 0.00 57 1022.5
20260906104841 23 225 3.2 8.0 0.00 0.00 0.00 58 1022.9
20260906103830 23 158 4.8 9.7 0.00 0.00 0.00 58 1022.9
20260906102850 22 158 8.0 16.1 0.00 0.00 0.00 60 1023.1
20260906101819 22 225 8.0 11.3 0.00 0.00 0.00 60 1023.1
20260906100900 22 225 9.7 14.5 0.00 0.00 0.00 61 1023.1
20260906095819 21 180 6.4 14.5 0.00 0.00 0.00 63 1023.1
20260906094819 21 203 9.7 12.9 0.00 0.00 0.00 63 1023.3
20260906093830 21 180 6.4 12.9 0.00 0.00 0.00 64 1023.3
20260906092849 21 180 4.8 9.7 0.00 0.00 0.00 64 1023.3
20260906091902 21 180 9.7 14.5 0.00 0.00 0.00 65 1023.4
20260906090802 20 248 3.2 20.9 0.00 0.00 0.00 67 1023.4
20260906085819 20 180 8.0 11.3 0.00 0.00 0.00 70 1023.7
20260906084839 19 225 8.0 14.5 0.00 0.00 0.00 70 1023.8
20260906083829 18 180 1.6 3.2 0.00 0.00 0.00 74 1023.7
20260906082839 18 135 3.2 6.4 0.00 0.00 0.00 75 1023.9
20260906081819 17 158 3.2 11.3 0.00 0.00 0.00 76 1023.9
20260906080819 17 180 1.6 3.2 0.00 0.00 0.00 77 1024.0
20260906075819 17 135 3.2 4.8 0.00 0.00 0.00 79 1023.9
20260906074818 16 135 4.8 6.4 0.00 0.00 0.00 82 1024.1
20260906073839 15 45 1.6 3.2 0.00 0.00 0.00 84 1024.0
20260906073023 15 113 3.2 4.8 0.00 0.00 0.00 84 1024.0
20260906072119 14 0.0 1.6 0.00 0.00 0.00 84 1024.1
20260906071119 14 135 1.6 4.8 0.00 0.00 0.00 84 1024.0
20260906070119 14 158 1.6 3.2 0.00 0.00 0.00 85 1024.1
20260906065139 13 0.0 0.0 0.00 0.00 0.00 86 1024.0
20260906064119 13 68 6.4 12.9 0.00 0.00 0.00 86 1024.0
20260906063119 13 158 3.2 6.4 0.00 0.00 0.00 88 1024.1
20260906062119 13 0.0 1.6 0.00 0.00 0.00 88 1024.2
20260906061139 12 180 1.6 3.2 0.00 0.00 0.00 90 1024.3
20260906060139 12 203 1.6 3.2 0.00 0.00 0.00 91 1024.4
20260906055118 11 0.0 0.0 0.00 0.00 0.00 91 1024.5
20260906054118 11 0.0 0.0 0.00 0.00 0.00 91 1024.5
20260906053118 11 0.0 0.0 0.00 0.00 0.00 91 1024.3
20260906052118 11 0.0 0.0 0.00 0.00 0.00 90 1024.2
20260906051118 11 0.0 0.0 0.00 0.00 0.00 90 1024.2
20260906050118 11 0.0 0.0 0.00 0.00 0.00 90 1024.2
20260906045118 11 0.0 0.0 0.00 0.00 0.00 90 1024.0
20260906044118 12 0.0 0.0 0.00 0.00 0.00 90 1024.0
20260906043149 12 0.0 0.0 0.00 0.00 0.00 90 1024.3
20260906042323 12 0.0 0.0 0.00 0.00 0.00 90 1024.4
20260906041119 12 0.0 0.0 0.00 0.00 0.00 89 1024.6
20260906040119 12 0.0 3.2 0.00 0.00 0.00 89 1024.8
20260906035118 12 0.0 0.0 0.00 0.00 0.00 89 1025.0
20260906034118 12 0.0 0.0 0.00 0.00 0.00 88 1025.0
20260906033139 12 0.0 0.0 0.00 0.00 0.00 88 1024.9
20260906032118 12 0.0 0.0 0.00 0.00 0.00 88 1025.0
20260906031118 12 0.0 0.0 0.00 0.00 0.00 87 1025.0
20260906030118 13 0.0 0.0 0.00 0.00 0.00 87 1025.0
20260906025138 13 0.0 0.0 0.00 0.00 0.00 87 1025.0
20260906024118 13 0.0 0.0 0.00 0.00 0.00 87 1025.0
20260906023129 13 0.0 0.0 0.00 0.00 0.00 87 1025.1
20260906022118 13 0.0 0.0 0.00 0.00 0.00 87 1025.3
20260906021118 13 203 1.6 3.2 0.00 0.00 0.00 87 1025.4
20260906020118 13 0.0 0.0 0.00 0.00 0.00 87 1025.6
20260906015118 13 0.0 0.0 0.00 0.00 0.00 87 1025.8
20260906014212 13 0.0 0.0 0.00 0.00 0.00 87 1025.8
20260906013118 13 0.0 0.0 0.00 0.00 0.00 87 1025.8
20260906012118 13 0.0 0.0 0.00 0.00 0.00 86 1025.8
20260906011118 13 0.0 1.6 0.00 0.00 0.00 87 1025.8
20260906010120 13 0.0 0.0 0.00 0.00 0.00 87 1025.7
20260906005118 13 0.0 0.0 0.00 0.00 0.00 87 1025.7
20260906004140 13 0.0 0.0 0.00 0.00 0.00 87 1025.7
20260906003118 13 0.0 0.0 0.00 0.00 0.00 86 1025.7
20260906002141 13 0.0 0.0 0.00 0.00 0.00 86 1025.9
20260906001130 13 0.0 0.0 0.00 0.00 0.00 86 1025.9
20260906000131 13 0.0 0.0 0.00 0.00 0.00 85 1025.9
20260905235129 13 0.0 0.0 0.00 0.00 0.00 84 1025.8
20260905234129 13 0.0 0.0 0.00 0.00 0.00 84 1026.1
20260905233129 14 0.0 0.0 0.00 0.00 0.00 83 1026.1
20260905232129 14 225 4.8 4.8 0.00 0.00 0.00 83 1026.0
20260905231119 14 180 1.6 3.2 0.00 0.00 0.00 83 1025.8
20260905230312 14 0.0 0.0 0.00 0.00 0.00 83 1025.4
20260905225440 14 180 1.6 1.6 0.00 0.00 0.00 84 1025.5
20260905224418 14 0.0 1.6 0.00 0.00 0.00 84 1025.6
20260905223450 14 0.0 0.0 0.00 0.00 0.00 83 1025.5
20260905222418 14 0.0 0.0 0.00 0.00 0.00 83 1025.4
20260905221617 15 0.0 0.0 0.00 0.00 0.00 82 1025.2
20260905220418 15 0.0 0.0 0.00 0.00 0.00 82 1025.4
20260905215420 15 180 1.6 3.2 0.00 0.00 0.00 83 1025.3
20260905214431 15 203 1.6 1.6 0.00 0.00 0.00 83 1025.3
20260905213429 14 0.0 1.6 0.00 0.00 0.00 84 1025.4
20260905212418 14 0.0 1.6 0.00 0.00 0.00 83 1025.2
20260905211418 15 0.0 0.0 0.00 0.00 0.00 83 1025.3
20260905210612 15 0.0 1.6 0.00 0.00 0.00 83 1025.2
20260905210103 15 0.0 1.6 0.00 0.00 0.00 82 1025.1
20260905205129 15 0.0 0.0 0.00 0.00 0.00 82 1025.1
20260905204131 15 0.0 0.0 0.00 0.00 0.00 81 1025.2
20260905203129 15 203 1.6 3.2 0.00 0.00 0.00 81 1025.3
20260905202139 15 225 1.6 3.2 0.00 0.00 0.00 81 1025.4
20260905201314 15 225 1.6 4.8 0.00 0.00 0.00 80 1025.3
20260905200120 16 248 1.6 3.2 0.00 0.00 0.00 80 1025.1
20260905195118 16 0.0 0.0 0.00 0.00 0.00 80 1025.0
20260905194118 16 0.0 1.6 0.00 0.00 0.00 80 1025.0
20260905193118 16 225 1.6 1.6 0.00 0.00 0.00 79 1025.0
20260905192131 16 0.0 1.6 0.00 0.00 0.00 78 1025.0
20260905191120 16 0.0 0.0 0.00 0.00 0.00 77 1024.9
20260905190118 16 0.0 0.0 0.00 0.00 0.00 77 1025.0
20260905185120 17 0.0 1.6 0.00 0.00 0.00 75 1024.7